Weather in Volodimirets

Ukraine / Rovno District     51°25′17″N   26°08′22″E
temp.,
°C
wind,
m/s
gust,
m/s
humid.,
%
clouds,
%
prec.,
mm/h
press.,
hPa
HPBL,
m
21 january, fri
fri2123:00−4wsw5119598 0.2 1004715
02:00−3w71592100 0.7 10041081
05:00−3w91677100 0.6 10031102
08:00−4w101889100 0.9 10031140
11:00−2w101886100 0.6 10041232
14:00−1wnw91681100 0.8 10051354
17:00−2w91793100 0.6 10051186
20:00−2wnw81595100 1.8 10061215
22 january, sat
sat2223:00−3wnw81389100 0.4 10071003
02:00−3wnw71388100 0.5 1008891
05:00−4wnw71393100 0.3 1007865
08:00−3wnw61195100 1.5 1008843
11:00−3nnw698595 0.4 1011942
14:00−3nnw6981100 0.4 10141002
17:00−4nw61184100 0.1 1016702
20:00−4nw61294100 0.5 1017773
23 january, sun
sun2323:00−4nw61294100 1.3 1018804
02:00−5nnw51193100 1.7 1019656
05:00−6nnw51092100 0.2 1022474
08:00−8nnw4994100 0.3 1024385
11:00−7n4787100 0.0 1027490
14:00−6n4683100 0.1 1028632
17:00−8nne359298 0.0 1031115
20:00−10n249761 0.0 103372
24 january, mon
mon2423:00−11nne249867 0.0 103572
02:00−13nne129869 0.0 103522
05:00−13n119865 0.0 103611
08:00−13nnw119758 0.0 103713
11:00−9n12875 0.0 1037134
14:00−6nnw12805 0.0 1035267
17:00−10nnw11935 0.0 103610
20:00−12w119612 0.0 103510
25 january, tue
tue2523:00−13sw229862 0.0 103516
02:00−12sw249774 0.0 103350
05:00−11sw3695100 0.0 103191
08:00−10sw3890100 0.0 1029141
11:00−6sw4794100 0.3 1027231
14:00−3sw4896100 0.7 1024274
17:00−3wsw3997100 0.8 1023288
20:00−1w3898100 1.3 1021334